Location: Ch�teau-Arnoux
(44.0814°N, 6.0027°E)
Time: 05:31:23
(UTC+00:00)

Cosmos 1980 Rocket - Pass Details

Date: 15 November 2019
Orbit: 827 x 851 km, 71.0° (Epoch: 08 December)

Event Time Altitude Azimuth Distance (km) Brightness Sun altitude
Exits shadow 03:48:20 45° 6° (N) 1,144 2.8 -29.1°
Maximum altitude 03:49:51 61° 62° (ENE) 960 2.6 -28.8°
Drops below altitude 10° 03:55:27 10° 142° (SE) 2,466 5.0 -27.8°
Sets 03:57:55 0° 146° (SE) 3,394 5.8 -27.4°
